Location: Banios
(43.0451°N, 0.2335°E)
Time: 13:40:29
(UTC+00:00)

H-2A R/B - Pass Details

Date: 25 January 2021
Orbit: 529 x 651 km, 98.3° (Epoch: 25 February)

Event Time Altitude Azimuth Distance (km) Brightness Sun altitude
Rises 06:19:11 0° 13° (NNE) 2,970 6.0 -11.4°
Reaches altitude 10° 06:21:24 10° 14° (NNE) 2,062 5.2 -11.0°
Maximum altitude 06:25:55 88° 97° (E) 658 2.7 -10.2°
Drops below altitude 10° 06:30:25 10° 194° (SSW) 2,044 5.3 -9.4°
Sets 06:32:36 0° 195° (SSW) 2,942 6.1 -9.0°
